Location: Newark
(43.9494°N, 6.8108°E)
Time: 17:33:31
(UTC+00:00)

A-11 Canister half - Pass Details

Date: 25 October 2019
Orbit: 1514 x 1686 km, 47.2° (Epoch: 18 November)

Event Time Altitude Azimuth Distance (km) Brightness Sun altitude
Exits shadow 06:03:33 - 294° (WNW) 4,834 10.9 -0.1°
Rises 06:03:35 0° 294° (WNW) 4,826 10.9 -0.1°
Reaches altitude 10° 06:06:46 10° 291° (WNW) 3,815 10.4 0.4°
Maximum altitude 06:16:12 62° 214° (SW) 1,724 9.3 2.0°
Drops below altitude 10° 06:25:19 10° 137° (SE) 3,687 12.3 3.6°
Sets 06:28:21 0° 134° (SE) 4,656 13.0 4.1°
